User: anonymous   Login
Location: Unspecified
(0.0000°N, 0.0000°E)
Time: 18:21:56
(UTC+00:00)
Language:

STARLINK-32877 - Orbit

View from above orbital plane
View from above orbital plane
View from above satellite
View from above satellite

Ground track
Ground track

The orbit is defined by the following mean orbital elements,

1 62960U          26145.23755779 +.00000000 +00000-0 +70436-3 0 00002
2 62960  53.1599 237.1650 0001505 101.9956 258.1213 15.30213533    01
Epoch (UTC): 25 May 2026 05:42:04
Eccentricity: 0.0001505
inclination: 53.1599°
perigee height: 474 km
apogee height: 476 km
right ascension of ascending node: 237.1650°
argument of perigee: 101.9956°
revolutions per day: 15.30213533
mean anomaly at epoch: 258.1213°

The dashed part of the orbit path shows where the satellite is in the earth's shadow,  

DLR